Temp
-8 -8 -8 -8 -8 -8 -8 -8 -8 -8 -9 -9 -9 -9 -9 -9 -9 -9 -10 -9 -9 -9 -9 -9 -9 -10 -10 -9 -9 -10 -10 -11 -11 -11 -10 -10 -10 -10 -10 -10 -10 -9 -9
-9 -9 -9 -9 -9 -10 -10 -10 -10 -9 -8 -8 -9 -9 -9 -9 -9 -9 -9 -10 -10 -10 -10 -10 -10 -10 -11 -11 -11 -11 -11 -11 -11 -11 -11 -11 -10 -11 -11 -10 -10 -10 -10
-11 -11 -10 -10 -10 -11 -10 -11 -10 -9 -9 -9 -9 -9 -9 -9 -9 -10 -10 -10 -10 -10 -10 -10 -10 -10 -11 -11 -11 -11 -11 -11 -11 -11 -11 -11 -11 -11 -11 -11 -10 -10 -10
-11 -11 -11 -11 -11 -11 -10 -11 -11 -10 -10 -10 -10 -9 -9 -10 -10 -10 -10 -10 -10 -10 -11 -11 -11 -11 -11 -11 -11 -11 -11 -12 -12 -12 -12 -12 -11 -11 -11 -11 -11 -11 -11
-11 -11 -11 -11 -10 -11 -11 -11 -10 -10 -10 -10 -10 -10 -10 -10 -10 -10 -10 -11 -11 -11 -11 -11 -11 -11 -11 -12 -12 -12 -12 -12 -12 -12 -12 -12 -12 -12 -12 -12 -12 -12 -12
-11 -11 -11 -10 -11 -11 -10 -10 -10 -10 -10 -10 -10 -10 -10 -11 -11 -11 -11 -12 -12 -12 -12 -12 -11 -11 -11 -12 -12 -12 -12 -13 -12 -13 -13 -13 -13 -13 -13 -13 -13 -12 -12
-11 -10 -10 -10 -11 -10 -11 -10 -10 -10 -10 -10 -10 -11 -11 -11 -11 -12 -12 -12 -12 -12 -12 -12 -12 -12 -12 -12 -13 -13 -13 -13 -13 -13 -13 -13 -13 -13 -13 -13 -13 -13 -13
-11 -11 -12 -12 -11 -10 -10 -10 -10 -10 -10 -11 -11 -11 -11 -12 -12 -12 -12 -13 -13 -13 -13 -13 -13 -13 -13 -13 -13 -13 -13 -13 -13 -13 -13 -13 -13 -13 -13 -13 -13 -13 -14
-11 -11 -11 -11 -10 -11 -10 -10 -11 -11 -11 -11 -11 -11 -12 -12 -12 -12 -12 -13 -13 -13 -13 -13 -13 -13 -14 -14 -13 -13 -13 -13 -13 -13 -14 -14 -14 -14 -13 -13 -13 -13 -13
-11 -11 -11 -11 -11 -10 -10 -11 -11 -11 -11 -11 -11 -11 -11 -12 -12 -12 -13 -13 -13 -13 -13 -13 -13 -13 -13 -14 -14 -13 -13 -13 -13 -14 -14 -14 -14 -14 -13 -13 -13 -14 -13
-11 -11 -11 -11 -11 -11 -11 -11 -11 -11 -11 -11 -11 -11 -12 -12 -12 -13 -13 -13 -13 -13 -13 -13 -13 -13 -13 -13 -13 -13 -13 -14 -14 -14 -14 -14 -14 -13 -13 -13 -13 -12 -12
-11 -11 -10 -11 -11 -11 -11 -11 -11 -11 -11 -12 -12 -12 -12 -12 -13 -13 -13 -13 -13 -13 -13 -13 -13 -13 -13 -13 -13 -13 -14 -14 -14 -14 -14 -14 -13 -13 -13 -13 -13 -13 -13
-11 -11 -11 -11 -11 -11 -11 -11 -11 -11 -12 -12 -12 -12 -12 -12 -13 -13 -13 -13 -13 -13 -13 -13 -13 -13 -13 -13 -13 -13 -13 -13 -13 -13 -13 -13 -13 -13 -13 -13 -13 -13 -13
-11 -11 -11 -11 -11 -11 -11 -11 -11 -11 -12 -12 -12 -12 -13 -13 -13 -13 -13 -13 -13 -13 -14 -14 -14 -13 -13 -13 -13 -13 -13 -13 -13 -13 -13 -13 -13 -13 -13 -13 -13 -13 -13
-11 -11 -11 -11 -11 -11 -11 -12 -12 -12 -12 -12 -12 -13 -13 -13 -13 -13 -13 -13 -14 -14 -14 -14 -13 -14 -14 -14 -13 -13 -13 -13 -13 -13 -13 -13 -13 -13 -13 -13 -13 -13 -13
-12 -12 -12 -12 -12 -12 -12 -12 -12 -12 -12 -13 -13 -13 -13 -13 -13 -13 -13 -14 -14 -13 -14 -13 -14 -14 -13 -13 -13 -13 -13 -13 -13 -13 -13 -13 -13 -13 -13 -13 -13 -13 -14
-12 -12 -12 -12 -12 -12 -12 -13 -13 -13 -13 -13 -13 -13 -13 -13 -13 -13 -14 -14 -14 -13 -14 -13 -14 -13 -13 -13 -13 -13 -13 -13 -13 -13 -13 -13 -13 -13 -13 -14 -13 -14 -14
-12 -12 -12 -12 -12 -12 -12 -13 -13 -13 -13 -13 -14 -14 -14 -14 -13 -14 -14 -14 -14 -14 -14 -14 -14 -14 -14 -13 -13 -14 -13 -13 -13 -13 -13 -13 -14 -14 -14 -14 -14 -14 -15
-12 -12 -12 -12 -12 -12 -13 -13 -13 -14 -14 -14 -14 -14 -14 -14 -14 -14 -14 -14 -14 -14 -14 -14 -14 -14 -14 -14 -14 -14 -13 -13 -13 -14 -14 -14 -14 -14 -14 -14 -15 -15 -15
-12 -12 -12 -12 -13 -13 -13 -14 -14 -14 -14 -15 -15 -15 -15 -15 -15 -14 -14 -14 -14 -14 -14 -14 -14 -14 -14 -14 -14 -13 -13 -13 -14 -14 -14 -14 -14 -15 -15 -15 -15 -15 -15
-12 -13 -13 -13 -13 -14 -14 -14 -15 -15 -15 -15 -15 -15 -15 -15 -14 -14 -14 -14 -14 -14 -14 -14 -14 -14 -14 -14 -14 -13 -14 -14 -14 -14 -14 -15 -15 -15 -15 -15 -15 -15 -16
-13 -13 -13 -13 -14 -14 -14 -15 -15 -15 -15 -15 -15 -15 -15 -15 -15 -14 -15 -15 -15 -14 -14 -14 -14 -14 -14 -14 -14 -14 -14 -14 -14 -14 -14 -15 -15 -15 -15 -15 -15 -16 -17
-13 -13 -13 -13 -14 -14 -14 -15 -15 -15 -15 -15 -15 -15 -15 -15 -15 -14 -14 -15 -15 -15 -15 -14 -14 -14 -14 -14 -14 -14 -14 -14 -14 -14 -14 -15 -15 -15 -15 -16 -16 -16 -17
-13 -13 -13 -14 -14 -14 -14 -15 -15 -15 -15 -15 -15 -15 -15 -15 -15 -15 -15 -15 -15 -15 -15 -14 -14 -14 -14 -14 -14 -14 -14 -14 -15 -15 -15 -15 -15 -16 -16 -16 -16 -17 -18
-13 -13 -14 -14 -14 -14 -15 -15 -15 -15 -15 -15 -15 -15 -15 -15 -15 -15 -15 -15 -15 -15 -14 -14 -14 -14 -15 -15 -15 -15 -15 -15 -15 -14 -14 -15 -16 -16 -16 -17 -17 -18 -19
-13 -14 -14 -14 -14 -14 -14 -15 -15 -15 -15 -15 -15 -15 -15 -15 -15 -15 -15 -15 -15 -15 -15 -14 -14 -14 -15 -15 -15 -15 -15 -15 -15 -15 -15 -16 -16 -17 -17 -18 -18 -19 -20
Height
5870 5866 5866 5867 5863 5856 5859 5860 5857 5858 5858 5857 5860 5862 5861 5860 5860 5860 5860 5861 5860 5859 5856 5854 5851 5851 5849 5846 5845 5844 5843 5844 5843 5841 5840 5840 5838 5838 5838 5837 5837 5836 5837
5860 5860 5862 5858 5855 5855 5856 5854 5854 5856 5856 5854 5853 5854 5853 5851 5850 5850 5851 5850 5849 5847 5845 5843 5841 5840 5838 5836 5835 5835 5834 5833 5832 5831 5832 5831 5830 5828 5827 5829 5829 5829 5828
5858 5857 5852 5852 5851 5850 5851 5850 5850 5848 5846 5847 5847 5847 5847 5846 5845 5843 5843 5841 5840 5837 5835 5833 5832 5830 5828 5827 5828 5827 5826 5824 5823 5823 5822 5821 5821 5820 5819 5819 5818 5818 5818
5851 5849 5848 5846 5845 5846 5845 5844 5843 5842 5842 5842 5843 5843 5841 5840 5838 5836 5835 5834 5831 5830 5827 5824 5821 5820 5819 5820 5819 5819 5818 5817 5817 5815 5815 5814 5812 5812 5812 5811 5810 5808 5809
5840 5842 5842 5841 5840 5838 5837 5836 5837 5836 5836 5837 5837 5835 5833 5831 5829 5828 5826 5824 5822 5820 5817 5814 5814 5814 5813 5812 5812 5811 5810 5810 5809 5808 5808 5806 5806 5805 5805 5804 5803 5802 5800
5835 5832 5830 5830 5830 5830 5829 5828 5828 5829 5829 5828 5826 5824 5823 5822 5821 5818 5815 5813 5812 5810 5811 5811 5810 5808 5807 5807 5806 5805 5805 5804 5804 5803 5801 5799 5797 5797 5797 5797 5796 5795 5795
5826 5823 5820 5819 5821 5822 5821 5821 5821 5821 5820 5819 5818 5816 5814 5812 5811 5810 5809 5808 5809 5810 5807 5805 5804 5804 5804 5803 5802 5803 5801 5802 5801 5799 5796 5794 5792 5792 5791 5791 5790 5790 5789
5818 5815 5811 5810 5813 5814 5815 5814 5813 5813 5812 5812 5811 5810 5809 5807 5806 5805 5806 5806 5805 5803 5802 5801 5801 5800 5800 5799 5799 5798 5799 5799 5797 5794 5791 5788 5787 5787 5788 5787 5785 5785 5783
5811 5810 5809 5807 5807 5807 5807 5807 5808 5807 5806 5805 5804 5803 5802 5803 5803 5803 5802 5800 5800 5799 5799 5798 5797 5796 5795 5795 5795 5795 5795 5794 5792 5790 5788 5785 5783 5781 5781 5780 5777 5777 5776
5802 5804 5804 5803 5802 5802 5803 5803 5802 5801 5801 5801 5800 5800 5800 5799 5799 5799 5797 5796 5796 5796 5795 5793 5792 5791 5791 5791 5790 5789 5788 5786 5786 5784 5782 5780 5778 5775 5772 5770 5767 5765 5763
5796 5797 5798 5798 5799 5798 5798 5798 5797 5796 5796 5796 5796 5795 5795 5795 5795 5795 5794 5793 5792 5792 5791 5790 5788 5788 5787 5787 5786 5784 5782 5780 5779 5777 5775 5772 5769 5767 5764 5762 5759 5756 5753
5792 5793 5794 5794 5794 5794 5793 5792 5792 5791 5792 5791 5791 5791 5791 5791 5791 5790 5789 5789 5787 5787 5786 5785 5784 5784 5782 5781 5780 5778 5776 5774 5772 5770 5767 5764 5761 5757 5755 5752 5748 5745 5742
5789 5789 5790 5790 5789 5788 5788 5788 5787 5786 5786 5785 5785 5786 5786 5785 5785 5785 5784 5783 5782 5781 5780 5779 5778 5777 5775 5774 5772 5770 5768 5765 5763 5761 5758 5756 5752 5749 5745 5741 5738 5733 5730
5784 5785 5785 5785 5785 5783 5783 5782 5781 5780 5780 5780 5779 5779 5779 5778 5778 5778 5778 5777 5777 5776 5773 5772 5771 5769 5768 5766 5764 5761 5758 5756 5753 5750 5748 5745 5741 5737 5734 5730 5726 5722 5717
5780 5780 5780 5779 5778 5777 5776 5775 5774 5774 5774 5773 5773 5772 5772 5772 5772 5772 5772 5772 5771 5769 5767 5766 5765 5763 5761 5759 5757 5755 5752 5748 5745 5742 5738 5734 5730 5727 5723 5718 5714 5710 5705
5775 5775 5774 5773 5772 5771 5770 5769 5769 5768 5767 5766 5766 5766 5766 5764 5764 5765 5765 5764 5763 5762 5761 5759 5758 5757 5755 5752 5750 5747 5743 5740 5736 5732 5728 5724 5720 5716 5711 5706 5701 5696 5691
5769 5769 5768 5767 5766 5766 5765 5764 5763 5762 5761 5760 5759 5758 5757 5757 5756 5756 5756 5757 5756 5755 5754 5752 5750 5748 5746 5744 5741 5739 5735 5731 5727 5723 5718 5713 5709 5704 5699 5694 5688 5683 5677
5763 5763 5762 5761 5760 5759 5758 5756 5755 5754 5753 5751 5750 5749 5748 5748 5749 5749 5750 5750 5749 5748 5746 5744 5742 5740 5738 5734 5731 5728 5724 5720 5716 5711 5707 5702 5697 5691 5686 5681 5675 5669 5663
5757 5757 5757 5756 5754 5752 5749 5747 5746 5744 5743 5741 5740 5740 5740 5742 5743 5743 5743 5742 5741 5740 5738 5736 5733 5730 5727 5724 5721 5717 5713 5709 5705 5701 5696 5690 5685 5679 5674 5668 5661 5654 5647
5751 5751 5750 5748 5746 5744 5741 5739 5736 5735 5733 5732 5731 5731 5733 5735 5735 5734 5734 5733 5731 5730 5728 5725 5723 5720 5717 5714 5710 5706 5702 5698 5693 5688 5683 5678 5672 5665 5660 5653 5646 5638 5631
5744 5742 5741 5739 5737 5735 5732 5730 5728 5727 5725 5724 5724 5724 5725 5726 5725 5725 5724 5723 5722 5720 5718 5715 5712 5709 5706 5703 5699 5694 5690 5686 5681 5675 5669 5663 5657 5651 5645 5637 5629 5621 5614
5736 5734 5732 5730 5728 5726 5724 5722 5721 5719 5718 5718 5717 5717 5717 5718 5717 5717 5715 5713 5712 5710 5707 5705 5702 5699 5696 5692 5687 5683 5678 5673 5667 5661 5654 5647 5641 5635 5628 5620 5612 5604 5596
5727 5725 5724 5722 5720 5718 5716 5714 5713 5712 5711 5710 5710 5710 5710 5709 5709 5707 5705 5704 5702 5699 5697 5695 5692 5688 5684 5680 5675 5670 5664 5658 5652 5645 5638 5631 5625 5618 5610 5602 5594 5586 5579
5719 5717 5716 5714 5712 5711 5709 5707 5706 5705 5704 5704 5704 5704 5703 5701 5700 5698 5696 5694 5692 5690 5687 5684 5680 5677 5672 5667 5661 5656 5650 5644 5637 5630 5624 5616 5608 5600 5591 5583 5575 5567 5561
5711 5709 5707 5706 5704 5703 5701 5699 5698 5697 5697 5697 5696 5695 5693 5691 5690 5689 5686 5684 5682 5679 5675 5672 5668 5664 5660 5654 5647 5642 5635 5628 5621 5614 5606 5597 5589 5581 5572 5564 5557 5551 5545
5702 5701 5699 5698 5696 5695 5694 5692 5692 5691 5690 5689 5687 5686 5684 5682 5680 5678 5676 5672 5670 5667 5663 5659 5654 5650 5646 5641 5633 5626 5619 5612 5604 5595 5586 5577 5569 5561 5553 5546 5540 5534 5529
Wind_Speed
28 31 32 41 41 42 32 31 22 22 20 15 14 18 21 24 24 23 22 25 27 29 30 30 29 32 34 36 37 38 39 36 31 29 29 28 30 29 32 37 40 40 42
31 29 32 31 26 22 28 27 25 26 27 21 19 21 23 23 23 24 26 29 32 33 33 33 33 34 35 35 36 39 36 32 30 29 28 30 31 30 30 34 34 36 34
30 33 33 30 29 26 27 23 24 25 20 20 21 23 24 24 25 26 30 31 31 31 33 33 31 29 26 25 26 28 30 27 25 26 27 27 29 30 30 28 28 29 29
33 35 35 34 28 26 25 24 24 23 19 19 20 21 22 24 25 25 26 27 28 28 26 24 23 23 24 25 26 27 26 24 24 25 25 25 24 25 25 25 24 24 23
38 37 39 35 32 28 27 20 19 18 18 19 20 20 21 23 25 26 27 27 25 23 21 20 21 24 26 26 25 25 25 27 30 31 31 31 30 29 29 28 28 27 27
38 35 39 42 30 25 19 16 16 18 18 18 21 23 25 26 27 27 25 23 21 20 19 18 18 15 14 15 17 17 16 16 16 16 15 16 16 16 18 20 20 23 25
34 39 41 38 26 21 16 15 16 16 19 21 22 24 24 23 23 22 21 18 17 17 17 18 17 14 12 12 13 14 14 13 11 12 12 12 14 13 13 13 14 15 18
27 25 19 15 18 16 15 13 15 19 20 21 19 18 19 18 16 14 13 15 16 15 15 15 15 14 14 14 15 13 11 9 10 12 13 15 18 21 21 21 23 20 20
22 21 18 15 14 14 13 15 19 20 20 18 17 16 15 13 12 12 15 14 14 15 15 16 15 13 12 13 13 11 10 9 10 13 15 18 20 22 21 22 24 22 26
21 19 17 15 13 13 15 18 19 19 17 15 15 15 15 14 12 14 14 13 13 14 15 13 11 9 7 8 10 12 14 15 15 17 20 23 24 26 28 29 29 28 32
17 17 16 13 14 16 17 19 18 17 17 16 16 18 17 14 14 13 12 13 15 15 12 9 9 10 11 11 14 16 19 20 19 20 22 26 26 28 28 30 30 32 34
15 15 13 13 15 17 17 18 19 19 18 19 19 19 19 18 16 14 14 14 13 11 11 13 14 14 14 15 16 17 18 20 23 27 26 28 30 31 31 32 35 37 37
14 14 14 16 17 18 20 21 20 20 21 20 21 21 19 16 16 15 15 16 15 15 15 14 14 16 18 19 20 23 23 25 26 30 29 29 31 31 32 34 35 35 37
14 15 17 18 19 20 23 22 22 22 22 23 22 21 18 17 17 18 19 19 17 17 17 18 19 21 23 24 25 26 30 32 32 33 32 33 31 32 34 34 36 38 39
16 17 19 21 22 23 24 24 24 24 24 23 23 22 21 21 20 20 20 18 18 18 20 21 22 22 24 24 25 27 29 31 32 33 34 33 35 37 38 39 39 40 42
18 19 21 22 23 24 24 24 24 25 25 25 25 24 24 25 22 21 20 20 21 21 20 21 23 23 24 24 24 28 30 31 31 32 34 36 39 41 42 43 44 45 46
20 20 22 23 23 22 22 23 25 26 26 27 27 25 25 25 24 22 21 21 22 22 24 24 23 24 27 26 28 31 32 33 34 36 39 42 44 45 45 45 47 48 48
22 22 23 23 24 25 26 26 26 27 26 25 26 26 25 26 26 25 22 21 23 23 18 22 24 25 26 29 32 36 35 35 37 39 43 46 45 44 45 46 48 48 50
22 23 23 25 26 26 26 26 27 26 25 24 25 27 26 25 25 25 24 25 26 27 29 24 23 25 29 34 38 38 37 37 40 44 46 46 46 47 47 48 48 49 51
22 24 24 24 25 26 27 28 27 26 24 24 25 26 25 24 25 26 27 26 25 22 21 24 27 30 32 37 38 38 39 43 46 47 49 49 49 50 49 50 50 51 53
24 24 25 26 25 26 26 25 24 23 22 21 20 22 23 24 26 28 29 27 24 25 28 29 30 30 34 37 39 40 43 46 49 51 53 51 50 50 52 53 55 57 56
26 26 26 25 25 25 25 23 22 20 20 19 19 20 22 23 26 26 27 27 31 31 30 33 33 37 39 39 41 44 46 49 50 48 48 48 49 52 55 58 59 58 56
26 26 25 24 24 25 23 20 19 20 19 19 20 22 23 25 25 27 27 25 26 28 32 35 38 41 41 41 43 48 50 50 52 53 54 55 56 57 58 62 63 59 55
27 25 24 23 22 24 22 22 23 22 20 20 22 23 23 24 24 26 27 29 29 30 34 38 41 43 43 46 50 51 54 57 57 55 56 58 59 60 63 64 63 56 50
25 24 24 23 23 24 25 25 24 22 21 22 22 22 25 27 29 31 33 35 36 39 42 45 45 46 44 49 52 55 57 56 54 58 64 63 62 65 65 64 57 49 45
25 25 25 24 23 25 24 23 22 21 21 21 22 25 28 26 27 30 32 33 34 39 44 47 48 48 47 47 51 53 56 58 60 60 65 70 71 69 64 53 45 46 46
Wind_Direction
264 266 268 267 269 287 296 307 284 289 316 318 289 281 281 282 278 278 279 281 283 287 290 291 288 280 277 277 280 285 292 295 293 286 278 276 271 276 275 274 275 274 273
279 282 279 290 295 303 310 315 312 293 300 294 286 283 283 283 284 285 287 289 290 291 290 290 291 290 287 281 280 283 290 294 288 281 274 269 268 269 269 269 272 284 283
287 291 292 303 295 308 300 307 300 306 294 284 282 283 281 281 282 283 285 288 289 291 290 289 287 290 290 284 283 283 285 286 288 287 286 285 283 282 282 274 274 277 279
278 282 287 296 293 302 294 288 295 294 281 278 278 278 280 282 283 284 285 286 288 290 290 289 290 291 289 285 282 281 283 285 286 285 284 282 279 279 280 280 276 270 265
280 281 283 286 293 299 283 279 277 278 282 282 284 287 287 288 288 288 288 289 290 292 295 293 292 287 282 282 281 281 284 285 288 290 288 285 281 280 281 283 285 282 276
279 289 286 284 285 282 265 267 278 285 290 297 301 299 296 294 292 293 292 292 295 294 287 285 295 294 291 289 291 293 297 300 301 299 298 299 298 291 285 283 285 289 292
283 289 280 277 271 260 268 276 285 294 301 301 301 302 304 303 301 297 293 293 285 284 290 289 284 280 281 284 286 291 292 295 299 300 309 313 308 312 305 303 299 296 295
284 288 278 250 242 258 275 283 296 301 304 304 302 299 298 299 298 294 291 288 284 289 290 284 282 282 281 281 284 289 286 293 296 300 303 305 305 306 308 308 305 306 302
265 272 266 262 264 274 281 295 301 303 302 300 304 313 315 304 291 288 293 291 291 292 291 287 285 285 279 280 285 285 292 306 306 308 305 302 301 300 302 300 297 296 301
263 269 268 268 267 273 281 293 298 297 291 294 306 308 307 301 287 292 292 289 284 282 286 287 284 283 280 279 287 295 302 310 315 314 313 305 295 292 299 303 301 294 297
269 267 265 266 274 281 290 291 293 298 292 291 299 302 299 282 278 281 278 279 281 285 281 276 274 283 291 294 298 304 308 311 305 312 314 312 307 310 301 299 299 299 299
253 251 253 267 281 283 292 296 296 294 285 284 291 295 291 275 268 270 275 283 283 274 273 281 294 300 301 296 293 299 305 310 307 310 310 310 306 308 304 299 297 298 298
248 252 264 278 286 295 295 290 289 289 283 280 282 284 282 274 266 268 277 276 273 284 289 287 289 296 295 298 299 303 310 315 308 312 310 306 302 298 299 299 299 300 299
253 264 277 287 295 295 292 291 289 286 282 279 278 279 273 268 271 270 266 268 278 285 288 291 294 296 299 300 305 300 308 312 310 310 308 305 301 302 303 301 300 299 300
261 276 286 294 297 294 294 292 292 288 282 276 276 274 269 268 268 265 266 272 277 279 280 281 288 298 304 302 301 300 302 305 307 308 309 307 304 304 303 302 302 302 301
270 282 290 294 295 295 289 286 288 288 279 272 271 270 269 268 262 260 264 270 274 276 279 283 285 289 297 301 303 305 305 305 307 310 311 309 307 304 302 302 303 302 301
276 283 287 290 289 288 285 285 283 284 279 270 266 264 268 262 256 253 259 266 274 280 280 282 279 287 304 302 303 306 302 302 304 307 310 310 307 303 302 302 303 302 302
280 284 285 283 283 287 289 288 284 283 279 272 266 266 264 258 257 259 263 271 277 278 289 295 292 293 299 302 303 302 302 303 306 308 307 307 306 304 302 302 303 305 305
275 277 277 282 285 287 290 288 286 282 279 270 265 263 261 259 260 266 268 272 276 276 287 290 299 305 307 306 305 302 303 303 302 305 307 308 307 303 302 303 305 306 307
268 275 281 287 287 291 287 290 284 277 276 270 266 265 259 255 260 265 268 268 274 283 291 301 302 302 302 303 303 302 303 303 304 306 306 306 306 304 306 307 311 312 308
280 284 285 286 289 287 289 284 277 276 274 272 268 261 257 256 262 268 272 278 269 281 291 293 295 300 306 309 309 308 307 307 307 306 305 303 303 300 303 310 314 315 310
280 280 282 285 288 286 289 277 274 273 274 272 267 266 270 268 273 277 276 279 271 289 291 293 295 304 308 308 308 309 307 308 308 308 309 305 302 305 306 308 313 314 307
280 282 281 282 283 284 283 268 269 270 269 269 270 271 273 272 273 275 275 278 283 288 296 299 297 296 301 304 307 308 307 305 308 311 311 309 306 305 305 307 312 310 302
281 278 280 279 280 281 274 261 264 269 270 270 272 272 270 277 286 286 282 280 286 290 293 295 299 302 300 300 304 306 306 306 308 307 309 307 306 305 307 309 310 301 294
279 277 279 277 275 275 271 266 268 269 273 275 282 286 284 284 281 283 285 285 285 288 293 298 298 299 298 300 303 305 304 305 305 305 308 309 308 308 310 310 302 292 295
279 278 277 274 272 275 276 275 275 278 281 281 280 283 279 281 285 287 291 291 289 290 292 293 296 298 302 304 304 306 305 304 305 308 310 311 311 310 309 303 294 299 298